Wind_Speed
37 44 46 51 64 59 48 67 58 48 49 67 67 60 57 54 51 60 59 50 45 40 41 40 38 37 36 37 34 32 30 29 26 26 27 27 27 26 25 25 24 24 24 25
39 47 35 45 53 67 51 57 67 53 41 62 62 69 53 52 55 55 57 51 43 40 42 41 39 37 35 35 33 32 30 28 29 29 27 28 28 26 26 26 26 26 26 27
40 35 38 57 47 47 71 60 58 63 49 56 57 63 63 54 51 58 59 46 42 40 37 39 38 36 36 34 34 33 32 30 30 27 29 28 29 28 28 28 28 27 28 30
38 35 56 53 50 37 58 62 48 50 60 50 52 59 55 58 56 60 67 62 48 46 44 44 43 39 36 35 36 35 33 31 29 30 30 30 31 29 29 29 29 30 31 34
25 32 35 41 37 26 56 65 53 44 56 50 46 55 56 57 62 60 59 55 54 54 49 43 41 39 37 36 36 35 34 32 30 31 31 31 32 31 31 32 33 34 36 37
27 29 19 42 28 38 51 57 54 49 57 46 40 50 60 63 56 63 61 55 49 48 50 43 41 42 39 37 37 36 35 34 33 34 33 33 33 34 35 36 38 39 40 42
36 28 27 32 31 42 46 45 37 45 56 40 32 44 47 58 59 49 60 62 58 50 41 42 42 43 40 39 39 38 38 38 38 38 36 36 37 38 40 41 42 43 44 41
33 18 34 25 27 42 48 39 36 17 28 41 37 44 41 59 53 48 53 62 59 53 51 50 53 43 44 43 42 43 43 42 42 42 40 39 39 41 41 44 44 42 40 42
14 7 33 25 26 43 40 39 42 20 21 24 31 43 44 47 57 57 54 49 51 53 56 42 44 45 44 40 44 48 45 46 46 46 44 45 45 45 47 42 41 39 38 43
13 10 19 16 34 36 43 40 44 26 16 21 26 34 42 47 43 56 56 54 50 54 49 46 44 46 44 44 38 48 47 44 44 50 44 43 45 44 43 41 40 40 39 43
11 16 21 18 25 39 38 42 23 17 14 15 28 39 24 41 45 53 47 48 50 54 50 51 49 43 42 41 41 26 39 35 45 37 45 45 41 37 39 43 43 34 49 47
17 22 18 18 34 38 42 45 11 9 14 14 21 30 39 30 36 36 38 41 40 42 43 52 48 42 41 42 37 39 39 34 35 39 40 38 38 44 34 39 41 47 40 49
28 22 15 12 9 23 39 37 8 15 15 23 20 23 35 37 34 35 40 43 41 43 46 45 44 46 48 45 38 37 37 36 43 43 39 42 29 32 35 39 45 36 46 39
29 28 26 24 24 16 20 22 19 15 20 22 27 30 33 39 38 34 31 31 33 37 36 33 31 31 38 34 39 33 31 33 33 34 27 33 36 41 34 39 35 34 30 33
28 36 22 28 26 22 15 20 13 17 19 19 24 33 38 40 35 33 34 33 31 34 34 33 28 29 32 31 30 28 30 25 30 36 30 35 40 32 24 24 26 30 34 37
25 23 18 19 20 19 20 17 20 18 17 20 20 23 28 33 35 37 34 35 34 34 37 30 28 25 25 25 24 29 27 25 22 29 30 23 23 26 27 29 32 35 38 45
32 32 26 22 26 33 23 26 13 16 14 17 26 27 28 29 25 22 25 26 24 20 17 15 15 16 16 17 17 19 22 25 27 24 24 27 29 29 31 34 37 42 48 50
33 34 34 30 33 23 19 19 17 13 12 16 12 18 20 24 22 21 21 20 17 16 16 17 18 16 16 16 18 19 19 22 23 25 28 28 29 33 37 41 46 49 52 55
30 33 35 31 24 20 20 19 17 16 15 19 17 18 15 18 17 20 20 18 17 15 14 13 13 14 14 16 18 19 21 24 25 28 28 31 34 38 43 47 51 53 55 57
27 31 28 22 26 22 19 19 17 16 12 15 17 17 18 12 14 16 16 14 13 12 13 14 15 12 14 18 22 25 26 27 30 32 33 36 40 45 48 52 55 56 55 53
30 31 32 31 24 23 21 20 20 17 22 22 17 16 17 18 14 14 12 8 6 6 11 14 16 17 22 24 27 28 30 32 33 35 38 42 46 51 54 54 53 51 53 56
32 33 33 32 29 26 22 19 17 19 20 23 24 22 18 15 14 12 10 9 9 12 15 20 23 24 26 29 31 32 34 37 38 41 46 50 54 55 53 52 51 54 58 62
35 34 34 34 30 24 15 10 11 12 19 17 14 15 16 15 14 14 14 14 16 17 20 24 27 28 31 33 36 39 41 42 45 49 54 56 55 52 51 52 56 61 66 66
34 36 33 35 28 22 14 13 13 15 11 9 12 12 12 12 14 17 17 19 20 21 23 29 32 33 34 38 40 42 43 48 51 53 53 48 47 50 54 59 64 66 62 59
31 35 35 35 30 28 18 10 16 17 17 18 17 14 13 13 13 15 16 19 22 24 28 32 36 35 38 40 41 46 49 49 50 46 45 49 52 56 61 63 61 58 60 61
31 34 32 37 33 30 25 17 24 17 17 17 16 13 11 11 10 13 17 20 22 23 25 26 30 35 39 43 46 46 45 44 43 47 51 54 58 61 62 58 58 61 63 64
Wind_Direction
239 231 230 214 208 198 214 216 210 201 219 220 217 221 219 219 220 215 214 222 220 219 219 218 213 214 215 216 217 222 224 227 229 234 240 244 244 243 244 244 247 256 264 271
238 229 227 207 197 200 211 211 211 213 227 217 221 222 224 223 223 216 211 218 211 213 217 217 216 214 216 219 219 222 226 228 231 234 241 243 244 245 247 249 253 260 267 275
236 226 209 191 187 206 215 210 217 224 220 222 221 225 224 222 222 214 203 209 216 218 221 220 219 216 218 220 223 224 228 230 233 238 239 240 245 246 248 252 257 264 271 276
228 202 180 182 189 194 206 209 215 213 216 222 221 225 221 220 225 215 210 216 219 224 216 219 217 216 218 222 226 229 231 234 236 237 239 240 245 248 252 255 261 266 271 275
192 186 200 206 176 210 198 210 214 209 218 218 219 228 217 216 220 210 205 205 212 220 221 219 221 220 220 224 228 231 232 233 235 238 241 244 247 249 252 256 261 266 270 274
176 159 184 213 209 179 192 207 212 211 211 218 213 222 215 208 222 210 207 210 216 219 211 212 218 220 219 226 230 231 234 235 236 239 242 244 246 250 256 260 263 265 267 270
163 147 174 200 210 191 186 196 201 220 224 228 234 217 217 208 212 219 212 214 217 221 212 216 219 222 224 226 232 236 237 239 242 242 243 245 249 252 258 261 263 265 268 276
188 156 173 179 203 200 195 208 192 202 223 245 241 218 219 206 202 207 212 213 219 225 227 225 219 216 225 228 233 237 240 243 246 245 244 246 250 255 257 263 267 277 275 278
132 135 155 160 189 202 205 215 207 218 226 224 223 213 213 203 209 209 210 208 224 229 224 223 230 221 234 241 238 237 238 243 245 246 244 250 254 259 265 265 274 276 275 285
120 162 164 144 162 192 199 206 214 224 186 196 210 203 214 209 208 208 208 217 221 220 227 230 233 226 234 237 239 235 239 239 242 239 246 250 259 265 268 263 266 272 284 286
105 179 185 156 153 169 184 197 192 171 151 157 188 206 193 199 208 204 210 212 222 227 233 231 229 234 242 250 241 234 230 252 246 246 247 255 253 266 268 270 277 281 288 278
153 158 184 138 150 180 186 189 179 141 130 146 168 195 201 188 194 199 205 207 208 218 228 225 223 233 239 242 253 263 253 252 250 259 273 254 265 272 268 277 263 289 289 280
159 156 163 180 206 175 186 184 214 146 125 146 140 175 189 201 180 189 206 209 210 217 220 220 227 237 243 245 250 259 261 265 260 272 258 265 262 269 274 270 282 289 280 296
170 159 174 169 153 160 163 170 159 143 112 135 136 152 169 175 184 188 182 193 203 209 211 215 219 217 231 227 230 238 232 243 244 263 264 263 266 283 285 283 287 292 306 309
182 172 159 153 160 169 168 196 162 169 128 117 134 140 165 184 185 186 187 186 195 192 201 213 209 207 222 230 236 246 240 264 251 251 260 269 268 276 296 298 298 302 308 309
189 208 184 185 162 171 176 153 157 178 144 135 128 135 149 167 180 182 191 193 197 190 188 196 208 222 229 235 230 223 232 237 245 253 260 284 281 282 290 299 301 304 308 309
194 194 189 171 160 168 160 158 153 137 123 130 126 130 137 134 141 160 179 189 196 203 201 203 210 214 216 220 225 229 239 248 256 267 273 273 279 291 304 304 304 308 310 306
194 195 185 187 194 174 168 151 168 162 154 155 158 139 140 143 142 147 153 159 167 179 189 195 202 208 220 225 230 237 246 251 255 257 269 279 291 297 300 302 306 306 304 302
191 198 195 194 194 177 162 174 173 172 191 184 177 170 172 156 163 162 169 179 183 191 201 212 222 225 231 231 240 250 256 259 262 272 281 288 291 296 300 302 303 301 299 298
185 194 191 194 189 173 188 189 194 178 161 189 205 206 186 177 180 171 181 191 204 213 213 217 224 229 261 255 254 255 259 263 271 279 284 290 294 298 298 299 297 296 298 299
179 182 189 195 201 188 200 207 214 177 142 151 171 174 191 196 180 168 149 148 178 213 225 222 233 262 266 260 257 258 260 265 272 278 287 293 297 298 296 294 296 297 298 300
176 175 180 181 185 194 196 201 203 171 144 139 141 142 151 165 179 192 202 214 242 253 246 245 244 259 262 259 262 262 265 271 278 290 294 296 296 295 295 297 297 296 297 298
175 174 174 176 183 187 181 192 200 199 176 156 170 181 190 204 222 236 246 250 255 256 254 252 256 262 265 270 273 275 276 281 288 291 295 294 294 295 294 294 296 296 299 300
174 171 171 170 176 161 146 190 164 163 158 155 173 183 201 215 227 231 237 245 252 253 254 251 253 257 268 271 271 280 282 289 291 291 290 289 290 293 296 298 300 302 302 302
169 169 167 164 168 167 158 158 179 171 163 173 187 198 201 211 224 234 244 249 253 257 260 262 261 261 273 275 282 287 288 290 290 287 287 292 294 296 298 300 300 301 301 301
167 161 164 168 174 165 159 167 178 187 201 203 206 205 212 219 242 261 263 265 259 262 259 263 269 275 281 285 286 287 288 287 285 287 291 293 296 298 299 299 299 300 300 301
Height
5559 5557 5563 5579 5589 5608 5623 5630 5642 5649 5656 5668 5679 5685 5697 5703 5711 5719 5729 5739 5745 5752 5759 5764 5769 5773 5778 5782 5787 5791 5793 5797 5801 5803 5804 5806 5806 5808 5810 5811 5812 5813 5813 5813
5547 5547 5564 5571 5586 5597 5609 5620 5632 5641 5650 5661 5671 5677 5689 5694 5704 5712 5723 5731 5736 5743 5751 5757 5763 5769 5774 5778 5782 5786 5789 5793 5795 5796 5800 5800 5802 5803 5805 5807 5807 5807 5807 5807
5537 5552 5554 5563 5578 5595 5600 5612 5626 5637 5647 5652 5663 5666 5676 5684 5693 5702 5713 5721 5730 5739 5747 5753 5759 5766 5771 5775 5779 5781 5784 5788 5790 5793 5795 5795 5797 5798 5799 5801 5801 5801 5801 5800
5531 5540 5547 5561 5574 5583 5598 5612 5622 5629 5639 5646 5652 5656 5666 5678 5686 5694 5705 5714 5723 5731 5739 5744 5750 5758 5766 5769 5773 5776 5779 5783 5786 5787 5789 5790 5792 5792 5793 5794 5795 5794 5793 5792
5533 5541 5551 5557 5572 5580 5594 5604 5614 5624 5634 5639 5645 5646 5661 5668 5674 5686 5696 5706 5713 5726 5733 5740 5748 5754 5759 5763 5768 5771 5773 5777 5780 5782 5784 5784 5785 5786 5786 5786 5787 5786 5784 5783
5535 5543 5552 5559 5566 5573 5588 5601 5613 5620 5627 5631 5642 5644 5650 5657 5672 5680 5692 5700 5709 5718 5724 5733 5742 5748 5752 5756 5761 5765 5768 5772 5774 5775 5776 5778 5778 5779 5779 5779 5778 5777 5775 5772
5535 5544 5553 5560 5568 5575 5585 5598 5610 5616 5620 5626 5634 5633 5641 5654 5664 5675 5684 5695 5704 5711 5720 5729 5737 5743 5746 5751 5755 5758 5762 5765 5767 5768 5769 5770 5770 5771 5771 5770 5769 5767 5765 5764
5539 5547 5556 5559 5567 5577 5586 5595 5605 5612 5619 5623 5624 5626 5634 5650 5660 5669 5681 5689 5698 5707 5715 5721 5728 5736 5741 5744 5748 5751 5755 5757 5759 5760 5761 5761 5762 5762 5762 5760 5761 5760 5757 5754
5546 5550 5554 5558 5566 5575 5584 5594 5604 5612 5617 5617 5619 5625 5632 5644 5652 5662 5673 5681 5692 5700 5707 5715 5723 5728 5731 5737 5740 5743 5746 5749 5750 5751 5752 5752 5753 5754 5754 5753 5753 5751 5748 5744
5543 5548 5551 5557 5564 5572 5583 5595 5605 5613 5613 5613 5615 5623 5626 5636 5647 5659 5668 5679 5688 5696 5702 5710 5715 5720 5725 5730 5734 5734 5738 5741 5741 5741 5742 5744 5747 5747 5746 5745 5743 5741 5738 5733
5543 5549 5556 5561 5565 5573 5583 5594 5605 5607 5609 5610 5612 5619 5624 5633 5643 5655 5665 5674 5683 5691 5697 5704 5709 5714 5719 5724 5728 5731 5729 5734 5734 5734 5736 5739 5739 5737 5738 5736 5733 5730 5726 5723
5548 5552 5557 5561 5566 5576 5584 5596 5601 5603 5607 5608 5610 5616 5623 5632 5640 5651 5659 5668 5677 5685 5691 5697 5703 5709 5714 5718 5719 5723 5725 5726 5727 5729 5730 5730 5730 5730 5727 5725 5722 5719 5716 5714
5552 5557 5561 5569 5574 5579 5588 5598 5602 5603 5605 5608 5610 5616 5623 5631 5640 5648 5657 5665 5672 5680 5685 5692 5698 5703 5708 5713 5713 5714 5717 5716 5719 5720 5721 5722 5721 5719 5719 5717 5714 5710 5708 5706
5553 5557 5563 5569 5572 5579 5589 5596 5601 5603 5606 5609 5612 5617 5622 5628 5638 5645 5653 5661 5667 5674 5681 5686 5692 5697 5700 5701 5705 5708 5710 5710 5710 5713 5713 5713 5711 5710 5707 5704 5703 5700 5699 5694
5552 5557 5563 5568 5576 5582 5589 5596 5600 5604 5606 5611 5616 5617 5622 5627 5635 5643 5650 5656 5663 5669 5676 5680 5684 5686 5689 5693 5697 5700 5701 5702 5703 5704 5704 5705 5703 5699 5697 5696 5695 5691 5686 5684
5556 5557 5565 5572 5578 5584 5592 5596 5601 5605 5609 5611 5614 5619 5623 5628 5634 5640 5646 5653 5659 5665 5669 5674 5678 5682 5685 5688 5690 5692 5694 5695 5696 5696 5694 5694 5694 5693 5690 5687 5684 5681 5678 5674
5560 5564 5568 5574 5579 5586 5592 5596 5601 5606 5611 5615 5619 5623 5627 5631 5636 5642 5647 5652 5658 5663 5667 5671 5675 5679 5682 5684 5686 5687 5688 5689 5689 5689 5689 5689 5687 5685 5681 5678 5675 5672 5667 5661
5560 5565 5571 5576 5581 5587 5592 5598 5604 5609 5614 5618 5622 5626 5631 5635 5639 5644 5649 5654 5659 5664 5667 5671 5674 5677 5679 5680 5681 5683 5684 5685 5685 5683 5682 5680 5678 5675 5672 5669 5665 5661 5655 5650
5561 5566 5573 5578 5583 5589 5595 5601 5607 5611 5615 5619 5624 5629 5633 5636 5640 5644 5650 5655 5658 5662 5666 5669 5672 5673 5675 5676 5677 5678 5678 5677 5676 5675 5674 5672 5669 5667 5663 5659 5654 5649 5644 5639
5561 5567 5574 5579 5585 5591 5597 5603 5608 5611 5616 5620 5624 5629 5634 5638 5642 5646 5649 5653 5657 5660 5663 5666 5668 5670 5671 5671 5671 5671 5670 5670 5668 5668 5666 5663 5661 5657 5653 5648 5642 5636 5631 5625
5561 5567 5575 5582 5587 5594 5598 5603 5608 5615 5620 5620 5626 5629 5634 5638 5642 5646 5648 5651 5654 5657 5660 5662 5664 5665 5665 5665 5665 5664 5663 5662 5661 5659 5657 5654 5649 5644 5639 5633 5628 5622 5617 5613
5559 5567 5575 5583 5589 5597 5601 5605 5611 5615 5619 5621 5625 5630 5635 5639 5642 5644 5647 5649 5651 5654 5656 5657 5658 5658 5658 5658 5658 5656 5655 5653 5651 5648 5644 5640 5635 5629 5625 5620 5615 5611 5605 5600
5560 5568 5575 5585 5592 5597 5603 5607 5611 5615 5619 5623 5627 5631 5635 5638 5641 5643 5645 5646 5648 5649 5651 5651 5652 5652 5651 5650 5649 5647 5646 5644 5641 5637 5633 5628 5623 5618 5614 5609 5603 5598 5591 5584
5559 5567 5576 5585 5593 5599 5605 5608 5612 5615 5619 5623 5626 5629 5633 5636 5638 5640 5641 5643 5644 5645 5645 5646 5646 5646 5645 5644 5642 5640 5638 5634 5630 5625 5621 5617 5612 5607 5601 5595 5589 5583 5575 5570
5561 5569 5577 5586 5594 5600 5604 5608 5612 5615 5619 5623 5625 5628 5631 5633 5635 5636 5637 5639 5640 5640 5640 5640 5640 5639 5638 5637 5634 5630 5626 5621 5617 5612 5608 5604 5599 5593 5587 5582 5575 5569 5562 5555
5566 5573 5580 5588 5594 5600 5604 5607 5611 5615 5619 5622 5624 5625 5627 5630 5632 5633 5634 5634 5635 5635 5634 5634 5633 5631 5629 5626 5623 5618 5613 5609 5605 5601 5596 5592 5586 5581 5575 5568 5562 5554 5548 5541